Wind_Speed
64 60 57 54 51 48 41 39 35 34 29 27 24 22 18 14 19 34 37 41 38 39 38 38 38 36 33 32 34 34 34 32 31 33 32 34 36 36 37 39 41 43 45 47 50
69 63 59 56 55 48 43 44 39 36 32 31 29 27 20 17 15 21 38 35 39 39 39 38 37 37 36 34 33 33 35 34 33 32 34 35 35 38 39 41 44 45 49 54 56
67 73 65 61 61 54 50 48 44 42 37 36 32 31 23 19 17 15 20 37 34 36 37 40 39 38 36 35 35 35 36 35 35 34 36 37 39 40 42 44 46 47 50 55 59
74 70 75 65 63 59 57 49 49 48 42 38 35 34 28 22 21 18 14 18 39 33 31 35 39 40 39 36 36 38 38 38 36 37 38 39 42 45 47 48 51 52 55 60 64
80 76 75 71 69 64 61 57 51 52 47 41 39 36 32 27 24 19 18 18 23 38 38 33 32 32 34 36 37 39 38 39 42 43 43 45 46 48 50 52 53 55 61 63 65
83 81 78 75 73 68 63 57 56 53 48 47 40 40 35 31 24 20 19 18 20 31 39 39 36 34 32 31 31 32 35 39 42 44 47 47 49 53 54 54 56 60 61 64 66
82 83 80 79 74 74 68 60 62 54 49 48 42 41 39 33 27 25 21 19 19 25 39 39 40 36 32 34 34 38 38 39 40 44 47 49 51 54 55 55 57 60 66 66 67
81 82 84 81 78 76 68 68 66 57 52 51 45 43 41 35 31 30 23 15 16 16 38 41 39 41 38 37 40 43 44 43 43 46 48 50 54 54 54 56 62 67 67 63 58
83 84 86 85 87 79 72 73 68 61 55 52 47 45 42 36 33 31 26 11 13 14 20 36 42 41 39 40 38 38 42 45 46 48 52 57 60 60 60 61 63 64 56 54 53
88 88 88 88 88 81 76 73 75 63 58 57 49 48 44 41 35 31 26 15 17 14 13 16 19 21 23 29 39 44 48 53 57 57 57 58 59 60 58 56 55 50 48 50 54
93 90 91 92 89 86 78 75 72 69 63 64 54 49 47 41 35 34 27 24 20 19 16 13 13 17 16 23 31 38 42 44 49 52 54 53 50 44 44 43 43 44 46 53 55
91 96 92 93 92 89 84 75 74 74 69 63 57 54 52 42 36 37 32 28 24 22 20 18 18 18 20 24 28 32 37 39 37 37 34 32 35 36 35 37 41 45 47 48 51
94 95 98 94 96 91 86 80 78 80 73 70 62 55 55 44 37 33 36 32 29 25 24 15 14 19 21 25 26 21 17 15 19 20 22 26 31 35 38 39 38 39 44 47 46
99 96 103 97 95 95 87 89 83 82 78 70 63 59 56 55 46 35 35 33 33 26 21 18 17 19 21 24 24 20 18 19 21 25 28 32 30 32 30 32 34 37 40 39 42
104 101 104 103 97 94 91 88 84 85 83 76 64 62 61 58 53 42 36 36 32 31 21 15 17 18 18 21 14 14 17 18 19 19 21 23 22 24 27 31 34 36 38 43 47
108 105 101 105 102 96 94 92 87 87 78 73 66 62 64 60 51 46 38 39 35 33 20 18 19 16 17 16 13 13 13 14 15 15 16 18 22 25 29 32 35 39 43 48 52
113 109 103 103 106 100 98 95 89 82 76 69 68 70 69 62 55 47 39 39 38 33 29 30 18 20 19 17 14 11 9 9 14 15 18 21 24 28 32 35 39 43 47 50 53
117 112 107 103 107 104 101 98 91 80 81 75 73 69 64 61 57 49 44 39 39 37 35 31 22 16 19 18 16 14 13 14 15 17 20 25 27 30 35 38 41 47 51 53 57
121 114 111 108 107 107 103 98 89 82 83 80 77 69 68 60 60 50 49 45 42 36 35 31 24 19 21 19 19 17 17 18 19 21 24 28 31 33 37 41 46 51 53 56 60
124 117 114 109 108 111 102 91 87 84 81 80 76 71 69 63 60 54 47 44 47 39 36 34 28 20 22 21 20 19 22 23 24 26 29 32 36 37 41 45 49 52 55 57 62
121 120 121 113 108 106 97 88 87 86 85 81 77 72 69 62 62 58 53 47 42 40 36 33 32 21 19 18 20 21 23 24 27 29 32 36 37 40 44 48 50 54 55 59 63
119 122 122 113 106 100 100 90 89 87 86 84 78 74 73 70 68 60 56 49 45 41 37 31 35 20 15 21 22 23 22 25 28 30 33 35 38 41 44 47 51 54 57 61 64
117 125 121 113 106 100 98 93 91 89 86 82 78 76 72 65 62 59 54 47 42 41 34 33 34 30 22 27 22 20 21 23 25 28 30 34 38 40 44 47 52 54 57 62 63
118 128 121 112 108 100 96 96 90 89 87 85 77 76 73 64 60 60 59 50 47 42 41 37 31 31 26 24 18 15 18 21 22 24 27 33 37 41 44 48 51 53 58 61 62
116 121 118 111 104 98 95 98 94 90 87 84 79 74 71 65 62 60 58 57 51 45 42 41 33 29 29 23 18 17 18 21 22 26 30 35 39 43 47 50 52 55 58 61 62
108 116 118 110 106 100 97 97 92 91 86 82 79 77 71 65 65 65 64 62 56 52 43 41 36 30 29 22 24 21 20 22 26 31 35 37 42 44 48 51 53 57 58 60 62
102 112 120 114 108 101 96 95 90 86 84 83 81 74 73 70 71 68 65 60 56 49 40 40 38 37 33 26 26 25 23 27 31 34 36 39 43 45 49 52 55 56 58 59 62
Wind_Direction
221 220 218 219 225 225 226 227 231 229 231 237 242 239 241 250 243 228 231 229 235 237 240 242 242 242 245 252 258 259 261 263 265 268 271 270 275 279 283 287 291 292 293 291 289
220 219 222 227 221 220 222 222 224 230 232 235 241 240 234 239 249 239 229 231 232 237 242 244 245 247 247 251 258 260 263 266 265 270 274 276 281 283 287 289 290 294 295 294 294
220 220 221 219 220 221 218 218 222 228 230 231 237 241 231 234 245 250 240 229 233 234 240 246 249 249 251 253 257 259 261 264 268 272 274 278 282 285 286 288 290 292 292 292 293
221 220 222 224 217 218 219 218 222 225 225 229 231 241 231 235 246 250 254 244 231 236 242 244 250 252 252 252 255 260 266 270 272 275 278 280 282 284 285 288 290 293 293 293 294
222 219 220 221 218 220 218 218 225 224 226 226 231 237 235 238 238 249 253 260 251 237 238 242 245 249 255 259 262 266 269 273 273 276 279 281 283 285 286 288 289 291 291 292 295
224 221 220 219 219 217 219 218 228 220 225 227 228 231 235 238 234 246 249 259 270 244 238 240 244 250 253 265 268 271 268 272 275 279 281 283 284 284 284 287 290 290 291 295 296
221 220 219 219 217 220 222 218 222 221 222 224 224 227 231 236 234 243 246 258 270 251 235 240 242 244 255 262 264 270 273 275 276 280 283 286 288 287 289 290 292 294 295 298 299
223 220 218 216 216 218 221 222 220 219 221 224 223 225 231 231 235 240 247 260 272 260 227 235 242 246 250 255 262 269 273 275 275 277 281 286 288 289 290 293 296 299 301 299 299
222 221 217 217 217 217 219 217 219 218 220 218 216 221 232 234 235 240 244 259 260 253 233 236 242 250 256 261 264 268 270 273 276 276 281 285 284 287 291 292 295 296 298 302 306
220 221 218 217 218 217 215 216 216 212 218 220 221 224 227 233 233 234 245 249 253 244 241 239 238 245 263 267 265 266 269 272 276 276 276 276 279 286 289 291 292 295 302 305 304
219 220 219 218 219 217 213 214 214 216 218 216 221 228 224 229 226 231 243 247 248 255 239 248 252 253 277 280 270 267 268 269 271 273 274 277 280 282 288 293 298 303 304 303 304
220 217 218 218 218 218 214 215 217 216 217 218 220 225 225 224 224 226 235 245 240 253 248 250 262 270 274 285 281 270 267 271 277 278 279 280 282 287 293 300 304 304 303 301 301
218 216 215 216 218 218 216 212 212 215 217 217 219 225 224 220 223 228 231 242 244 243 245 249 273 262 273 288 288 283 286 287 291 292 291 290 291 296 301 303 306 304 302 305 309
216 216 214 214 216 216 213 214 212 211 213 214 217 224 227 225 225 225 229 238 251 244 242 244 266 267 276 284 287 286 293 293 285 286 289 291 295 297 307 308 305 307 311 313 314
214 214 214 212 215 213 213 216 214 213 215 217 220 225 223 228 228 226 229 234 245 254 245 255 267 266 274 288 290 292 292 293 293 294 294 302 310 312 313 311 314 314 314 315 317
212 213 212 212 212 213 214 215 212 212 213 216 218 219 220 227 226 223 232 233 237 253 246 257 254 267 270 273 288 306 303 301 299 303 307 319 317 318 316 313 311 313 315 315 313
210 211 210 211 210 211 214 216 211 209 210 214 213 216 219 224 225 226 231 226 233 245 249 251 251 262 264 269 287 303 297 293 310 315 321 321 316 316 313 313 315 316 315 315 314
209 209 209 209 209 209 212 215 212 204 209 210 212 215 217 222 224 227 234 227 233 237 245 256 249 259 260 270 280 286 294 304 316 321 321 322 317 314 316 316 318 319 320 318 318
207 207 209 209 209 207 209 212 210 206 208 210 213 213 217 221 227 228 232 224 227 232 240 254 248 252 253 267 280 278 289 304 309 313 317 320 317 314 314 318 321 323 323 323 323
205 205 209 208 208 208 208 208 211 209 207 208 212 214 217 221 224 224 228 224 226 230 239 251 252 250 247 269 283 283 294 300 301 302 310 314 313 312 316 319 322 324 324 324 326
202 202 208 206 207 208 203 205 209 208 206 208 211 213 214 218 220 221 225 225 226 229 235 252 252 250 250 272 276 287 293 302 301 302 303 306 310 316 317 319 321 324 325 325 326
200 200 205 205 204 204 200 202 207 207 207 208 210 211 214 217 219 222 223 224 227 231 230 244 252 246 270 281 271 283 289 295 300 303 306 308 316 318 318 321 321 323 324 325 327
198 199 203 203 202 200 200 201 204 206 206 207 209 212 211 214 218 219 220 221 227 232 234 238 254 250 274 272 272 283 292 298 301 302 308 316 322 322 323 321 322 322 325 326 329
196 198 199 200 199 198 198 201 201 205 206 207 206 211 211 211 215 218 224 226 232 237 239 233 247 258 268 270 272 279 289 297 303 311 319 325 325 326 325 324 324 325 326 329 330
195 199 198 198 197 196 197 199 199 203 206 206 207 209 212 213 216 220 224 228 231 237 240 236 241 256 261 266 263 275 287 296 306 316 320 326 325 327 328 326 326 326 328 330 333
195 196 194 195 194 196 196 200 197 202 205 207 208 209 210 213 217 219 222 226 230 234 234 235 236 245 259 264 272 271 283 296 303 314 321 323 324 326 328 326 326 327 330 333 332
193 193 191 193 192 193 195 198 197 201 203 206 209 210 211 214 216 218 221 223 225 226 231 233 237 242 253 262 275 273 285 294 303 310 319 319 323 327 326 326 328 329 332 334 332
Height
10729 10738 10744 10751 10760 10767 10771 10776 10780 10783 10786 10789 10792 10795 10796 10799 10800 10803 10806 10812 10815 10819 10823 10825 10828 10830 10832 10833 10834 10835 10836 10838 10840 10838 10837 10834 10832 10830 10827 10824 10821 10820 10815 10810 10805
10717 10725 10734 10741 10749 10756 10763 10768 10773 10776 10780 10783 10787 10789 10792 10795 10795 10798 10802 10806 10810 10813 10817 10820 10823 10825 10828 10829 10829 10830 10831 10832 10832 10833 10830 10828 10826 10823 10820 10817 10814 10812 10806 10798 10793
10701 10712 10721 10730 10738 10745 10753 10759 10764 10769 10773 10777 10781 10783 10786 10789 10792 10794 10797 10801 10804 10807 10811 10814 10818 10820 10822 10823 10823 10824 10825 10826 10829 10828 10825 10822 10819 10816 10813 10810 10807 10804 10798 10789 10782
10687 10698 10708 10718 10726 10733 10741 10748 10755 10761 10765 10770 10774 10777 10781 10783 10788 10791 10793 10796 10800 10802 10806 10810 10812 10814 10815 10816 10816 10819 10821 10821 10823 10821 10818 10815 10812 10809 10805 10802 10801 10797 10787 10780 10774
10672 10683 10695 10705 10714 10722 10731 10738 10745 10751 10757 10762 10768 10771 10775 10778 10782 10786 10789 10791 10793 10796 10800 10803 10806 10807 10809 10811 10811 10813 10814 10814 10816 10814 10811 10807 10804 10801 10798 10796 10792 10787 10778 10772 10767
10657 10668 10679 10691 10701 10711 10719 10727 10735 10742 10748 10755 10760 10764 10768 10772 10776 10780 10784 10786 10787 10789 10793 10796 10799 10801 10804 10805 10806 10807 10808 10808 10808 10806 10803 10800 10796 10792 10790 10788 10784 10775 10770 10766 10759
10640 10652 10664 10677 10688 10698 10708 10717 10724 10732 10740 10746 10751 10757 10761 10767 10770 10775 10779 10781 10782 10781 10786 10789 10792 10796 10800 10801 10801 10801 10801 10802 10801 10796 10794 10791 10787 10783 10781 10778 10774 10766 10760 10756 10750
10623 10636 10649 10660 10674 10684 10693 10705 10712 10723 10730 10737 10743 10749 10754 10761 10766 10770 10774 10776 10776 10775 10778 10782 10787 10790 10793 10794 10794 10794 10792 10792 10792 10790 10786 10783 10778 10775 10772 10770 10763 10756 10752 10747 10741
10607 10619 10631 10643 10656 10668 10682 10691 10702 10713 10721 10728 10735 10742 10749 10755 10760 10765 10768 10771 10773 10772 10772 10777 10782 10784 10787 10788 10788 10788 10785 10783 10783 10781 10779 10775 10770 10765 10765 10760 10755 10748 10742 10737 10730
10590 10600 10614 10628 10639 10653 10668 10678 10691 10702 10712 10720 10727 10734 10742 10748 10754 10759 10764 10767 10769 10770 10770 10773 10776 10778 10779 10780 10781 10781 10778 10777 10774 10772 10769 10766 10763 10759 10754 10750 10746 10740 10734 10728 10722
10569 10582 10597 10609 10622 10637 10655 10667 10680 10693 10702 10709 10717 10727 10733 10740 10747 10754 10759 10762 10763 10765 10766 10768 10770 10771 10775 10775 10774 10771 10769 10766 10764 10760 10759 10759 10756 10752 10747 10743 10738 10732 10727 10719 10712
10546 10563 10578 10592 10606 10621 10640 10655 10667 10680 10687 10699 10709 10717 10725 10733 10741 10747 10753 10755 10757 10760 10762 10764 10765 10767 10769 10768 10766 10762 10759 10758 10756 10752 10750 10749 10746 10744 10741 10737 10732 10726 10719 10711 10703
10524 10543 10557 10573 10587 10605 10626 10641 10653 10664 10676 10688 10699 10707 10717 10726 10735 10741 10746 10749 10751 10755 10757 10759 10761 10763 10763 10761 10758 10756 10754 10752 10750 10747 10745 10742 10740 10737 10734 10729 10724 10718 10711 10703 10695
10501 10520 10536 10556 10570 10590 10610 10624 10638 10649 10664 10677 10688 10698 10711 10718 10728 10734 10739 10743 10747 10749 10753 10754 10756 10757 10757 10755 10754 10752 10749 10748 10745 10743 10740 10737 10735 10730 10727 10722 10717 10711 10704 10696 10688
10478 10497 10517 10538 10555 10575 10595 10607 10622 10632 10652 10666 10682 10691 10702 10710 10717 10727 10732 10737 10741 10744 10748 10749 10751 10752 10752 10752 10750 10748 10745 10743 10740 10738 10735 10732 10729 10726 10721 10715 10710 10704 10697 10689 10681
10456 10476 10499 10517 10536 10557 10575 10588 10605 10619 10647 10662 10673 10683 10693 10700 10710 10720 10726 10730 10735 10739 10742 10743 10745 10748 10748 10747 10746 10744 10742 10739 10737 10734 10732 10728 10725 10721 10716 10711 10705 10699 10691 10683 10674
10434 10456 10481 10498 10518 10539 10556 10570 10588 10618 10637 10650 10663 10671 10681 10693 10703 10712 10717 10722 10729 10732 10736 10737 10740 10743 10743 10743 10742 10740 10738 10736 10734 10732 10728 10724 10721 10715 10711 10706 10699 10692 10684 10675 10665
10411 10435 10461 10481 10500 10521 10539 10556 10584 10613 10621 10637 10649 10661 10674 10684 10695 10704 10712 10716 10722 10727 10731 10732 10735 10738 10738 10739 10738 10737 10735 10733 10730 10727 10724 10720 10716 10712 10705 10699 10693 10685 10676 10666 10656
10389 10418 10441 10458 10480 10502 10524 10550 10584 10597 10610 10624 10637 10653 10666 10678 10688 10697 10702 10707 10714 10720 10725 10726 10729 10732 10733 10733 10733 10733 10731 10729 10725 10722 10719 10715 10711 10706 10700 10694 10685 10676 10666 10656 10645
10365 10400 10419 10444 10465 10488 10516 10552 10570 10584 10601 10615 10630 10645 10658 10668 10678 10687 10695 10700 10706 10714 10718 10720 10723 10726 10728 10729 10729 10728 10726 10724 10721 10717 10713 10710 10705 10700 10693 10685 10677 10667 10657 10646 10635
10347 10382 10393 10428 10450 10479 10521 10545 10554 10569 10588 10604 10619 10635 10649 10660 10668 10678 10686 10692 10701 10707 10711 10715 10718 10721 10723 10724 10724 10723 10721 10719 10716 10713 10708 10704 10699 10692 10685 10678 10669 10659 10649 10638 10627
10329 10360 10379 10413 10446 10478 10509 10528 10539 10558 10578 10595 10612 10628 10639 10648 10660 10671 10678 10685 10693 10698 10705 10709 10712 10715 10717 10718 10719 10717 10716 10714 10711 10707 10703 10698 10692 10686 10678 10670 10662 10652 10642 10630 10618
10315 10341 10368 10401 10435 10469 10491 10511 10527 10548 10568 10589 10603 10617 10629 10641 10654 10664 10672 10679 10686 10692 10699 10703 10706 10710 10712 10712 10713 10712 10711 10708 10705 10702 10698 10693 10687 10680 10672 10664 10655 10645 10634 10622 10610
10298 10323 10359 10397 10425 10457 10478 10496 10523 10540 10558 10576 10593 10607 10621 10635 10647 10655 10664 10672 10678 10685 10691 10696 10701 10704 10708 10708 10708 10707 10706 10704 10700 10697 10693 10688 10681 10674 10666 10658 10648 10638 10627 10615 10603
10289 10320 10362 10393 10425 10449 10467 10488 10508 10530 10549 10568 10585 10600 10613 10628 10639 10649 10658 10665 10672 10679 10683 10690 10696 10700 10702 10703 10702 10702 10701 10698 10695 10692 10688 10683 10675 10668 10660 10651 10641 10632 10621 10608 10595
10286 10318 10356 10387 10412 10435 10457 10480 10506 10523 10543 10562 10574 10588 10604 10620 10629 10635 10643 10654 10661 10669 10677 10683 10689 10694 10697 10698 10697 10697 10695 10693 10690 10687 10682 10677 10670 10663 10654 10645 10635 10625 10614 10601 10588
10281 10315 10345 10373 10401 10425 10452 10474 10499 10518 10534 10547 10565 10582 10596 10602 10610 10622 10635 10644 10653 10663 10671 10677 10682 10687 10691 10692 10692 10691 10689 10687 10684 10681 10676 10671 10664 10656 10648 10639 10629 10619 10607 10595 10582